Meteo Giornale » Osservazioni meteo Francia » Nizza

ore: 16:30 - Osservazioni Meteo Nizza
Lat. 43° 39' N Lon. 7° 12' E Alt. 4 metri s.l.m.

nuvoloso Europe/Paris

13 °C

Nuvoloso

Temp. 24 Ore

9 °C

14 °C

Est

31.5 Km/h

Dew point 6 °C

Umidità 62 %

Visibilità  10 Km

Il sole sorge alle ore 06:46

Il sole tramonta alle ore 20:15

Data e Ora Cielo e Fenomeni T °C DP °C Um. % Pres. hPa Vis. km Vento km/h
Oggi h: 16:30 nuvoloso Nuvoloso 13 6 62 1018 10 E 31.5
Oggi h: 16:00 nuvoloso Nuvoloso 13 7 66 1019 10 E 33.3
Oggi h: 15:30 nuvoloso Nuvoloso 13 7 66 1019 10 E 31.5
Oggi h: 15:00 molto_nuvoloso Molto Nuvoloso 13 6 62 1019 10 E 29.6
Oggi h: 14:30 molto_nuvoloso Molto Nuvoloso 13 7 66 1019 10 E 33.3
Oggi h: 13:30 nuvoloso Nuvoloso 13 7 66 1020 10 E 33.3
Oggi h: 13:00 nuvoloso Nuvoloso 13 7 66 1020 10 E 27.8
Oggi h: 12:30 poco_nuvoloso Poco Nuvoloso 14 7 62 1020 10 E 24
Oggi h: 12:00 poco_nuvoloso Poco Nuvoloso 14 6 58 1020 10 E 20.3
Oggi h: 11:30 poco_nuvoloso Poco Nuvoloso 14 6 58 1020 10 E 18.5
Oggi h: 11:00 nuvoloso Nuvoloso 12 5 62 1020 10 E 16.7
Oggi h: 10:30 nuvoloso Nuvoloso 12 6 66 1020 10 E/SE 16.7
Oggi h: 10:00 nuvoloso Rovescio nelle Vicinanze 12 5 62 1020 10 N 5.5
Oggi h: 09:30 nuvoloso_piovaschi Rovescio di Pioggia 11 6 71 1020 10 N/NO 7.4
Oggi h: 09:00 molto_nuvoloso Molto Nuvoloso 11 6 71 1020 10 N/NO 9.3
Oggi h: 08:30 molto_nuvoloso Molto Nuvoloso 10 6 76 1019 10 N/NO 11.1
Oggi h: 08:00 molto_nuvoloso Molto Nuvoloso 10 6 76 1019 10 N/NO 11.1
Oggi h: 07:30 molto_nuvoloso Molto Nuvoloso 9 6 81 1019 10 N/NO 11.1
Oggi h: 07:00 molto_nuvoloso Molto Nuvoloso 9 6 81 1019 10 N/NO 11.1
Oggi h: 06:30 molto_nuvoloso Molto Nuvoloso 9 6 81 1019 10 N/NO 11.1
Oggi h: 06:00 molto_nuvoloso Molto Nuvoloso 10 6 76 1019 10 N/NO 11.1
Oggi h: 05:30 molto_nuvoloso Molto Nuvoloso 10 6 76 1019 10 N/NO 11.1
Oggi h: 05:00 molto_nuvoloso Molto Nuvoloso 10 6 76 1019 10 N/NO 11.1
Oggi h: 04:30 molto_nuvoloso Molto Nuvoloso 10 6 76 1019 10 N/NO 9.3
Oggi h: 04:00 molto_nuvoloso Molto Nuvoloso 10 6 76 1019 10 N/NO 11.1
Oggi h: 03:30 molto_nuvoloso Molto Nuvoloso 10 6 76 1019 10 N 7.4
Oggi h: 03:00 molto_nuvoloso Molto Nuvoloso 10 6 76 1020 10 N 11.1
Oggi h: 01:30 molto_nuvoloso Molto Nuvoloso 10 6 76 1020 10 N 11.1
Oggi h: 01:00 molto_nuvoloso Molto Nuvoloso 10 5 71 1020 10 N 11.1
Ieri h: 23:30 molto_nuvoloso Molto Nuvoloso 11 6 71 1020 10 N/NE 14.8
Ieri h: 23:00 molto_nuvoloso Molto Nuvoloso 11 6 71 1021 10 N 11.1
Ieri h: 22:30 molto_nuvoloso Molto Nuvoloso 11 7 76 1020 10 N/NO 11.1
Ieri h: 22:00 molto_nuvoloso Molto Nuvoloso 12 4 57 1020 10 E 7.4
Ieri h: 21:30 molto_nuvoloso Molto Nuvoloso 12 4 57 1020 10 E 11.1
Ieri h: 21:00 molto_nuvoloso Molto Nuvoloso 12 5 62 1020 10 E/SE 14.8
Ieri h: 20:30 molto_nuvoloso Molto Nuvoloso 12 5 62 1020 10 E 14.8
Ieri h: 20:00 molto_nuvoloso Molto Nuvoloso 12 5 62 1019 10 E 16.7
Ieri h: 19:30 molto_nuvoloso Molto Nuvoloso 13 6 62 1020 10 E 16.7
Ieri h: 19:00 molto_nuvoloso Molto Nuvoloso 13 6 62 1020 10 E 18.5
Ieri h: 18:30 molto_nuvoloso Molto Nuvoloso 13 6 62 1020 10 E 20.3
Ieri h: 18:00 molto_nuvoloso Molto Nuvoloso 13 6 62 1020 10 E 20.3